Regional Weather Roundup
Issued by NWS Nashville, TN

Home | Current Version | Previous Version | Text Only | Print | Product List | Glossary On
Versions: 1 2 3 4 5 6 7 8 9 10 11 12 13 14 15 16 17 18 19 20 21 22 23 24 25 26 27 28 29 30 31 32 33 34 35 36 37 38 39 40 41 42 43 44 45 46 47 48 49 50
000
ASUS44 KOHX 210010
RWROHX
MIDDLE TENNESSEE HOURLY WEATHER ROUNDUP
NATIONAL WEATHER SERVICE NASHVILLE TN
600 PM CST MON NOV 20 2017

NOTE: "FAIR" INDICATES FEW OR NO CLOUDS BELOW 12,000 FEET WITH
NO SIGNIFICANT WEATHER AND/OR OBSTRUCTIONS TO VISIBILITY.

* THESE REPORTS ARE NOT UNDER NWS QUALITY CONTROL AND MAY NOT
  REPORT WEATHER SUCH AS PRECIPITATION AND FOG.


TNZ005>011-023>034-057-059-062>066-078-080-210100
...NORTHERN MIDDLE TENNESSEE...

CITY           SKY/WX    TMP DP  RH WIND       PRES   REMARKS
CLARKSVILLE    CLEAR     46  22  38 SE3       30.08R
CROSSVILLE     CLOUDY    41  21  44 CALM      30.12S
GALLATIN       CLEAR     41  28  60 CALM      30.12S
DICKSON          N/A     43  21  41 SE3       30.07S
LEBANON        CLEAR     40  28  62 CALM      30.08S
NASHVILLE      MOCLDY    49  23  36 CALM      30.10S
PORTLAND       CLEAR     43  25  49 SE6       30.08S
SMYRNA         CLEAR     40  31  70 CALM      30.11S
SPARTA         CLEAR     36  28  75 CALM      30.09F
SPRINGFIELD    CLEAR     43  23  45 SE3       30.07S
WEST NASHVILLE CLEAR     45  28  53 CALM      30.07S
$$
TNZ056-058-060-061-075>077-079-093>097-210100
...SOUTHERN MIDDLE TENNESSEE...

CITY           SKY/WX    TMP DP  RH WIND       PRES   REMARKS
COLUMBIA       CLEAR     46  21  36 CALM      30.08R
FAYETTEVILLE   CLEAR     46  25  42 S5        30.10R
MCMINNVILLE    CLEAR     39  32  75 CALM      30.10S
MURFREESBORO   CLEAR     43  31  63 CALM      30.09S
PULASKI        CLEAR     37  30  75 CALM      30.10S
SHELBYVILLE    CLEAR     41  28  60 CALM      30.10R
TULLAHOMA      CLEAR     39  30  70 CALM      30.09S
WINCHESTER     CLEAR     41  25  52 CALM      30.11S
$$


...KEY TO REMARKS...
VSB - VISIBILITY IN MILES
WCI - WIND CHILL INDEX
HX  - HEAT INDEX




USA.gov is the U.S. government's official web portal to all federal, state and local government web resources and services.